User: anonymous
Location: Unspecified
(0.0000°N, 0.0000°E)
Time: 23:00:55
(UTC+00:00)
Language:

SR - Orbit

View from above orbital plane
View from above orbital plane
View from above satellite
View from above satellite

Ground track
Ground track

The orbit data is extracted from the following two-line orbital elements,

1 00046U 60007B   14237.83425114  .00000453  00000-0  11284-3 0  7245
2 00046 066.6935 018.5424 0222037 272.6802 084.8910 14.47788982831598
Epoch (UTC): 25 August 2014 20:01:19
Eccentricity: 0.0222037
inclination: 66.6935°
perigee height: 575 km
apogee height: 891 km
right ascension of ascending node: 18.5424°
argument of perigee: 272.6802°
revolutions per day: 14.47788982
mean anomaly at epoch: 84.8910°
orbit number at epoch: 83159

The dashed part of the orbit path shows where the satellite is in the earth's shadow,  

DLR